Starlink 33635

operational
NORAD ID: 63065 Int'l Des: 2025-035 Owner: SPXS Country: US Constellation: starlink
LEOCIRCULAR

About Starlink 33635

Description loading...

Live Position

Loading 3D Globe...

Upcoming Passes

Altitude History

Altitude vs Time

uPlot chart will show altitude changes over time

Two-Line Element Set

1 63065U 25035P 25304.64021561 .00032109 00000-0 11714-2 0 9995
2 63065 42.9988 155.8579 0000431 317.7838 42.2980 15.27574575 39990
Epoch: Oct 31, 2025 • Age: 9 hours

Current Status

Altitude 486.7 km
Velocity 7.62 km/s
Sub-Earth Point -17.13°S, 49.15°W
Launch Date Feb 21, 2025
Age 0.6 years
Type internet

Technical Details

Classification Payload
Mass 575.00 kg
Dry Mass 530.00 kg
Total Mass 575.00 kg
Length 0.30 m
Diameter 4.10 m
Span 29.00 m
Shape Box + pan
Manufacturer SPXS
Bus Type Starlink V2MO
Phase Status In Orbit
Owner/State SPXS/US

Large Constellations

Loading constellations...